This is the latest recevied weather packets stored in our database for station/object KA2FNK. If no packets are shown the sender has not sent any weather packets the latest 10 day(s).
| Time | Temp. | Humidity | Pressure | Rain* | Wind** | Luminosity | Snow |
|---|---|---|---|---|---|---|---|
| 1777662028 | 16.67° C | 40% | 1017.7 hPa | 0 mm | - | - | - |
| 1777661726 | 16.67° C | 40% | 1018 hPa | 0 mm | - | - | - |
| 1777661425 | 16.67° C | 42% | 1018 hPa | 0 mm | - | - | - |
| 1777661125 | 16.67° C | 43% | 1018 hPa | 0 mm | - | - | - |
| 1777660824 | 16.67° C | 43% | 1018 hPa | 0 mm | - | - | - |
| 1777660522 | 16.67° C | 42% | 1018 hPa | 0 mm | - | - | - |
| 1777660222 | 16.67° C | 44% | 1018.1 hPa | 0 mm | - | - | - |
| 1777659920 | 16.67° C | 42% | 1018 hPa | 0 mm | - | - | - |
| 1777659620 | 16.67° C | 43% | 1018.1 hPa | 0 mm | - | - | - |
| 1777659319 | 16.67° C | 44% | 1018.1 hPa | 0 mm | - | - | - |
| 1777659018 | 16.67° C | 41% | 1018.1 hPa | 0 mm | - | - | - |
| 1777658716 | 16.67° C | 43% | 1018.2 hPa | 0 mm | - | - | - |
| 1777658415 | 16.67° C | 45% | 1018.1 hPa | 0 mm | - | - | - |
| 1777658115 | 16.67° C | 40% | 1018.3 hPa | 0 mm | - | - | - |
| 1777657813 | 16.11° C | 45% | 1018.4 hPa | 0 mm | - | - | - |
| 1777657512 | 16.11° C | 44% | 1018.5 hPa | 0 mm | - | - | - |
| 1777657212 | 16.67° C | 40% | 1018.4 hPa | 0 mm | - | - | - |
| 1777656911 | 16.67° C | 43% | 1018.6 hPa | 0 mm | - | - | - |
| 1777656609 | 16.11° C | 42% | 1018.6 hPa | 0 mm | - | - | - |
| 1777656308 | 16.11° C | 45% | 1018.6 hPa | 0 mm | - | - | - |
| 1777656007 | 16.11° C | 42% | 1018.6 hPa | 0 mm | - | - | - |
| 1777655706 | 16.11° C | 45% | 1018.6 hPa | 0 mm | - | - | - |
| 1777655406 | 16.11° C | 41% | 1018.6 hPa | 0 mm | - | - | - |
| 1777655104 | 16.11° C | 43% | 1018.7 hPa | 0 mm | - | - | - |
| 1777654804 | 16.11° C | 41% | 1018.7 hPa | 0 mm | - | - | - |
* Rain latest hour (hover to see other rain measurements)
** Current wind speed in m/s (hover to see current wind gust speed)